STARLINK-5764, 55602

Orbit data source: Space-Track

STARLINK-5764, 55602 is a payload satellite owned by SpaceX/Seattle (US) in LEO that was launched on Sun, 12 Feb 2023 UTC via an FALCON 9 launch vehicle from the Air Force Eastern Test Range (AFETR). Payload-class satellites include a variety of spacecraft equipped with specific instruments for various scientific and technological missions. These include communications satellites like Starlink; space stations such as the ISS; scientific satellites like the Hubble; Earth observation satellites from companies like Planet Labs, Umbra, and HawkEye 360; GPS; miniature CubeSats for education and research; and military/defense satellites.

Loading next visibility...
Identifier
55602, 2023-020AK
Orbit
LEO
Country
Flag of USUS
Related business
Manufacturer
SpaceX/Seattle
Mission
Operational Commercial Communications
Bus & Motor
STARLINK, Unknown motor
Mass
305 kg wet, ~290 kg dry
Launch date (UTC)
2023-02-12 (4 years ago)
Launch vehicle
FALCON 9
Launch site
Air Force Eastern Test Range (AFETR)
Object type
Payload
Rocket body
Debris
Shape & HBR
Box + 1 Pan, 10.1 m
Radar Cross Section
13.562 m², Large (>1 m²)

Expand to show TLE details & history
Last TLE update: 5 hours ago

TLE from 5 hours ago
0 STARLINK-5764
1 55602U 23020AK  26264.24270230  .00000400  00000-0  24085-4 0  9992
2 55602  43.0047 330.0878 0001561 278.5046  81.5629 15.27573076198947
Epoch: 2026-09-21T05:49Z
TLE epoch observation values (Epoch: 2026-09-21T05:49:29.478Z)
Latitude
-0.00001°
Longitude
-117.41037°
Altitude
482.689 km
Speed
7.626 km/s
True Right ascension
22h 00m 21s
True Declination
0° 00' 00"
Sunlit
Object was in full shadow at epoch
Visualization orbit readout
Latitude
Unknown
Longitude
Unknown
Altitude
Unknown
Speed
Unknown
Apparent Right ascension
Unknown
Apparent Declination
Unknown
Sunlit
N/A
Visualization observer readout
Local Sidereal Time
04:02:02
Azimuth
Unknown
Elevation
Unknown
Doppler factor
Unknown
Orbital elements
Apogee altitude
486.086 km
Perigee altitude
483.943 km
Semi-major axis
6,863.151 km
Eccentricity
0.00016
Inclination
43.0047°
RAAN
330.0878°
Arg. of periapsis
278.5046°
True anomaly
81.58059°
Mean anomaly
81.5629°
Eccentric anomaly
81.57175°
Mean motion
3.81731 °/min
Orbital period
94.31 mins
BSTAR
0.000024085
Loading maneuver chart data...
Computing Atmospheric mass density...
Loading historical data...
Loading historical data...
Loading historical data...
Loading historical data...
Loading historical data...
Loading historical data...
Loading historical data...

Documentation

Showing up to 5 results
|